Time,TemperatureF,DewpointF,PressureIn,WindDirection,WindDirectionDegrees,WindSpeedMPH,WindSpeedGustMPH,Humidity,HourlyPrecipIn,Conditions,Clouds,dailyrainin,SoftwareType,DateUTC
2013-01-16 00:00:00,23.9,18.9,29.63,North,0,0.0,0.0,81,0.00,,---,0.00,VWS V14.00,2013-01-16 06:00:00,
2013-01-16 00:05:00,24.0,19.0,29.62,North,0,0.0,0.0,81,0.00,,---,0.00,VWS V14.00,2013-01-16 06:05:00,
2013-01-16 00:10:00,24.0,19.0,29.61,North,0,0.0,0.0,81,0.00,,---,0.00,VWS V14.00,2013-01-16 06:10:00,
2013-01-16 00:15:00,24.0,19.0,29.61,North,0,0.0,0.0,81,0.00,,---,0.00,VWS V14.00,2013-01-16 06:15:00,
2013-01-16 00:21:00,24.0,19.0,29.62,North,0,0.0,0.0,81,0.00,,---,0.00,VWS V14.00,2013-01-16 06:21:00,
2013-01-16 00:27:00,24.0,19.0,29.62,North,0,0.0,0.0,81,0.00,,---,0.00,VWS V14.00,2013-01-16 06:27:00,
2013-01-16 00:33:00,24.2,19.5,29.62,North,0,0.0,0.0,82,0.00,,---,0.00,VWS V14.00,2013-01-16 06:33:00,
2013-01-16 00:38:00,24.4,19.7,29.62,North,0,0.0,0.0,82,0.00,,---,0.00,VWS V14.00,2013-01-16 06:38:00,
2013-01-16 00:43:00,24.4,19.7,29.62,North,0,0.0,0.0,82,0.00,,---,0.00,VWS V14.00,2013-01-16 06:43:00,
2013-01-16 00:48:00,24.4,19.7,29.63,North,0,0.0,0.0,82,0.00,,---,0.00,VWS V14.00,2013-01-16 06:48:00,
2013-01-16 00:53:00,24.4,19.7,29.63,North,0,0.0,0.0,82,0.00,,---,0.00,VWS V14.00,2013-01-16 06:53:00,
2013-01-16 00:58:00,24.4,19.7,29.63,North,0,0.0,0.0,82,0.00,,---,0.00,VWS V14.00,2013-01-16 06:58:00,
2013-01-16 01:04:00,24.4,19.7,29.63,North,0,0.0,0.0,82,0.00,,---,0.00,VWS V14.00,2013-01-16 07:04:00,
2013-01-16 01:09:00,24.4,19.7,29.63,North,0,0.0,0.0,82,0.00,,---,0.00,VWS V14.00,2013-01-16 07:09:00,
2013-01-16 01:14:00,24.6,19.9,29.63,North,0,0.0,0.0,82,0.00,,---,0.00,VWS V14.00,2013-01-16 07:14:00,
2013-01-16 01:19:00,24.6,19.9,29.63,North,0,0.0,0.0,82,0.00,,---,0.00,VWS V14.00,2013-01-16 07:19:00,
2013-01-16 01:24:00,24.6,20.2,29.63,North,0,0.0,0.0,83,0.00,,---,0.00,VWS V14.00,2013-01-16 07:24:00,
2013-01-16 01:29:00,24.6,20.2,29.63,North,0,0.0,0.0,83,0.00,,---,0.00,VWS V14.00,2013-01-16 07:29:00,
2013-01-16 01:35:00,24.6,20.2,29.63,North,0,0.0,0.0,83,0.00,,---,0.00,VWS V14.00,2013-01-16 07:35:00,
2013-01-16 01:40:00,24.6,20.2,29.63,North,0,0.0,0.0,83,0.00,,---,0.00,VWS V14.00,2013-01-16 07:40:00,
2013-01-16 01:45:00,24.6,20.2,29.62,North,0,0.0,0.0,83,0.00,,---,0.00,VWS V14.00,2013-01-16 07:45:00,
2013-01-16 01:50:00,24.6,20.2,29.62,North,0,0.0,0.0,83,0.00,,---,0.00,VWS V14.00,2013-01-16 07:50:00,
2013-01-16 01:56:00,24.6,20.2,29.63,North,0,0.0,0.0,83,0.00,,---,0.00,VWS V14.00,2013-01-16 07:56:00,
2013-01-16 02:01:00,24.6,20.2,29.63,North,0,0.0,0.0,83,0.00,,---,0.00,VWS V14.00,2013-01-16 08:01:00,
2013-01-16 02:06:00,24.6,20.2,29.63,North,0,0.0,0.0,83,0.00,,---,0.00,VWS V14.00,2013-01-16 08:06:00,
2013-01-16 02:11:00,24.6,20.2,29.64,North,0,0.0,0.0,83,0.00,,---,0.00,VWS V14.00,2013-01-16 08:11:00,
2013-01-16 02:16:00,24.6,20.2,29.63,North,0,0.0,0.0,83,0.00,,---,0.00,VWS V14.00,2013-01-16 08:16:00,
2013-01-16 02:21:00,24.6,20.2,29.63,North,0,0.0,0.0,83,0.00,,---,0.00,VWS V14.00,2013-01-16 08:21:00,
2013-01-16 02:26:00,24.6,20.2,29.63,North,0,0.0,0.0,83,0.00,,---,0.00,VWS V14.00,2013-01-16 08:26:00,
2013-01-16 02:31:00,24.6,20.2,29.63,North,0,0.0,0.0,83,0.00,,---,0.00,VWS V14.00,2013-01-16 08:31:00,
2013-01-16 02:36:00,24.6,20.2,29.63,North,0,0.0,0.0,83,0.00,,---,0.00,VWS V14.00,2013-01-16 08:36:00,
2013-01-16 02:41:00,24.4,20.0,29.63,North,0,0.0,0.0,83,0.00,,---,0.00,VWS V14.00,2013-01-16 08:41:00,
2013-01-16 02:46:00,24.4,20.0,29.63,North,0,0.0,0.0,83,0.00,,---,0.00,VWS V14.00,2013-01-16 08:46:00,
2013-01-16 02:51:00,24.4,20.0,29.63,North,0,0.0,0.0,83,0.00,,---,0.00,VWS V14.00,2013-01-16 08:51:00,
2013-01-16 02:56:00,24.4,20.0,29.63,North,0,0.0,0.0,83,0.00,,---,0.00,VWS V14.00,2013-01-16 08:56:00,
2013-01-16 03:01:00,24.2,19.8,29.63,North,0,0.0,0.0,83,0.00,,---,0.00,VWS V14.00,2013-01-16 09:01:00,
2013-01-16 03:06:00,24.2,19.8,29.63,North,0,0.0,0.0,83,0.00,,---,0.00,VWS V14.00,2013-01-16 09:06:00,
2013-01-16 03:11:00,24.0,19.6,29.63,North,0,0.0,0.0,83,0.00,,---,0.00,VWS V14.00,2013-01-16 09:11:00,
2013-01-16 03:16:00,24.2,19.8,29.62,North,0,0.0,0.0,83,0.00,,---,0.00,VWS V14.00,2013-01-16 09:16:00,
2013-01-16 03:21:00,24.0,19.6,29.63,North,0,0.0,0.0,83,0.00,,---,0.00,VWS V14.00,2013-01-16 09:21:00,
2013-01-16 03:26:00,24.0,19.6,29.62,North,0,0.0,0.0,83,0.00,,---,0.00,VWS V14.00,2013-01-16 09:26:00,
2013-01-16 03:31:00,24.0,19.6,29.63,North,0,0.0,0.0,83,0.00,,---,0.00,VWS V14.00,2013-01-16 09:31:00,
2013-01-16 03:36:00,24.0,19.6,29.62,North,0,0.0,0.0,83,0.00,,---,0.00,VWS V14.00,2013-01-16 09:36:00,
2013-01-16 03:41:00,23.9,19.5,29.61,North,0,0.0,0.0,83,0.00,,---,0.00,VWS V14.00,2013-01-16 09:41:00,
2013-01-16 03:46:00,23.7,19.0,29.61,North,0,0.0,0.0,82,0.00,,---,0.00,VWS V14.00,2013-01-16 09:46:00,
2013-01-16 03:51:00,23.5,18.8,29.61,North,0,0.0,0.0,82,0.00,,---,0.00,VWS V14.00,2013-01-16 09:51:00,
2013-01-16 03:56:00,23.3,18.6,29.61,North,0,0.0,0.0,82,0.00,,---,0.00,VWS V14.00,2013-01-16 09:56:00,
2013-01-16 04:01:00,23.0,18.3,29.61,North,0,0.0,0.0,82,0.00,,---,0.00,VWS V14.00,2013-01-16 10:01:00,
2013-01-16 04:06:00,22.8,18.1,29.60,North,0,0.0,0.0,82,0.00,,---,0.00,VWS V14.00,2013-01-16 10:06:00,
2013-01-16 04:11:00,22.6,17.7,29.60,North,0,0.0,0.0,81,0.00,,---,0.00,VWS V14.00,2013-01-16 10:11:00,
2013-01-16 04:16:00,22.2,17.3,29.59,North,0,0.0,0.0,81,0.00,,---,0.00,VWS V14.00,2013-01-16 10:16:00,
2013-01-16 04:21:00,21.9,17.3,29.59,North,0,0.0,0.0,82,0.00,,---,0.00,VWS V14.00,2013-01-16 10:21:00,
2013-01-16 04:26:00,21.9,17.3,29.58,North,0,0.0,0.0,82,0.00,,---,0.00,VWS V14.00,2013-01-16 10:26:00,
2013-01-16 04:31:00,21.7,17.1,29.58,North,0,0.0,0.0,82,0.00,,---,0.00,VWS V14.00,2013-01-16 10:31:00,
2013-01-16 04:36:00,21.3,16.7,29.58,North,0,0.0,0.0,82,0.00,,---,0.00,VWS V14.00,2013-01-16 10:36:00,
2013-01-16 04:41:00,21.2,16.6,29.58,North,0,0.0,0.0,82,0.00,,---,0.00,VWS V14.00,2013-01-16 10:41:00,
2013-01-16 04:46:00,21.0,16.1,29.58,North,0,0.0,0.0,81,0.00,,---,0.00,VWS V14.00,2013-01-16 10:46:00,
2013-01-16 04:51:00,20.4,15.5,29.58,North,0,0.0,0.0,81,0.00,,---,0.00,VWS V14.00,2013-01-16 10:51:00,
2013-01-16 04:56:00,20.3,15.4,29.58,North,0,0.0,0.0,81,0.00,,---,0.00,VWS V14.00,2013-01-16 10:56:00,
2013-01-16 05:01:00,19.9,15.0,29.58,North,0,0.0,0.0,81,0.00,,---,0.00,VWS V14.00,2013-01-16 11:01:00,
2013-01-16 05:06:00,19.5,14.6,29.58,North,0,0.0,0.0,81,0.00,,---,0.00,VWS V14.00,2013-01-16 11:06:00,
2013-01-16 05:11:00,19.4,14.5,29.58,North,0,0.0,0.0,81,0.00,,---,0.00,VWS V14.00,2013-01-16 11:11:00,
2013-01-16 05:16:00,19.2,14.3,29.58,North,0,0.0,0.0,81,0.00,,---,0.00,VWS V14.00,2013-01-16 11:16:00,
2013-01-16 05:21:00,19.0,14.1,29.57,North,0,0.0,0.0,81,0.00,,---,0.00,VWS V14.00,2013-01-16 11:21:00,
2013-01-16 05:26:00,18.8,13.9,29.57,North,0,0.0,0.0,81,0.00,,---,0.00,VWS V14.00,2013-01-16 11:26:00,
2013-01-16 05:31:00,18.5,13.6,29.57,North,0,0.0,0.0,81,0.00,,---,0.00,VWS V14.00,2013-01-16 11:31:00,
2013-01-16 05:36:00,18.3,13.5,29.57,North,0,0.0,0.0,81,0.00,,---,0.00,VWS V14.00,2013-01-16 11:36:00,
2013-01-16 05:41:00,18.3,13.5,29.56,North,0,0.0,0.0,81,0.00,,---,0.00,VWS V14.00,2013-01-16 11:41:00,
2013-01-16 05:47:00,18.1,13.3,29.56,North,0,0.0,0.0,81,0.00,,---,0.00,VWS V14.00,2013-01-16 11:47:00,
2013-01-16 05:52:00,17.7,12.9,29.56,North,0,0.0,0.0,81,0.00,,---,0.00,VWS V14.00,2013-01-16 11:52:00,
2013-01-16 05:57:00,17.7,12.9,29.56,North,0,0.0,0.0,81,0.00,,---,0.00,VWS V14.00,2013-01-16 11:57:00,
2013-01-16 06:02:00,17.6,12.8,29.57,North,0,0.0,0.0,81,0.00,,---,0.00,VWS V14.00,2013-01-16 12:02:00,
2013-01-16 06:07:00,17.4,12.6,29.56,North,0,0.0,0.0,81,0.00,,---,0.00,VWS V14.00,2013-01-16 12:07:00,
2013-01-16 06:12:00,17.4,12.9,29.57,North,0,0.0,0.0,82,0.00,,---,0.00,VWS V14.00,2013-01-16 12:12:00,
2013-01-16 06:17:00,17.2,12.7,29.57,North,0,0.0,0.0,82,0.00,,---,0.00,VWS V14.00,2013-01-16 12:17:00,
2013-01-16 06:22:00,17.2,12.7,29.57,North,0,0.0,0.0,82,0.00,,---,0.00,VWS V14.00,2013-01-16 12:22:00,
2013-01-16 06:27:00,17.0,12.5,29.57,North,0,0.0,0.0,82,0.00,,---,0.00,VWS V14.00,2013-01-16 12:27:00,
2013-01-16 06:32:00,16.8,12.3,29.57,North,0,0.0,0.0,82,0.00,,---,0.00,VWS V14.00,2013-01-16 12:32:00,
2013-01-16 06:37:00,16.8,12.3,29.57,North,0,0.0,0.0,82,0.00,,---,0.00,VWS V14.00,2013-01-16 12:37:00,
2013-01-16 06:42:00,16.8,12.3,29.58,North,0,0.0,0.0,82,0.00,,---,0.00,VWS V14.00,2013-01-16 12:42:00,
2013-01-16 06:47:00,16.8,12.3,29.57,North,0,0.0,0.0,82,0.00,,---,0.00,VWS V14.00,2013-01-16 12:47:00,
2013-01-16 06:52:00,16.8,12.3,29.58,North,0,0.0,0.0,82,0.00,,---,0.00,VWS V14.00,2013-01-16 12:52:00,
2013-01-16 06:57:00,16.8,12.3,29.58,North,0,0.0,0.0,82,0.00,,---,0.00,VWS V14.00,2013-01-16 12:57:00,
2013-01-16 07:02:00,16.7,12.2,29.59,North,0,0.0,0.0,82,0.00,,---,0.00,VWS V14.00,2013-01-16 13:02:00,
2013-01-16 07:07:00,16.7,12.2,29.59,North,0,0.0,0.0,82,0.00,,---,0.00,VWS V14.00,2013-01-16 13:07:00,
2013-01-16 07:12:00,16.7,12.2,29.59,North,0,0.0,0.0,82,0.00,,---,0.00,VWS V14.00,2013-01-16 13:12:00,
2013-01-16 07:17:00,16.7,12.2,29.58,North,0,0.0,0.0,82,0.00,,---,0.00,VWS V14.00,2013-01-16 13:17:00,
2013-01-16 07:22:00,16.8,12.3,29.59,North,0,0.0,0.0,82,0.00,,---,0.00,VWS V14.00,2013-01-16 13:22:00,
2013-01-16 07:27:00,16.8,12.3,29.59,North,0,0.0,0.0,82,0.00,,---,0.00,VWS V14.00,2013-01-16 13:27:00,
2013-01-16 07:32:00,16.8,12.3,29.59,North,0,0.0,0.0,82,0.00,,---,0.00,VWS V14.00,2013-01-16 13:32:00,
2013-01-16 07:37:00,17.2,12.7,29.58,North,0,0.0,0.0,82,0.00,,---,0.00,VWS V14.00,2013-01-16 13:37:00,
2013-01-16 07:42:00,17.4,12.9,29.59,North,0,0.0,0.0,82,0.00,,---,0.00,VWS V14.00,2013-01-16 13:42:00,
2013-01-16 07:47:00,17.9,13.4,29.59,North,0,0.0,0.0,82,0.00,,---,0.00,VWS V14.00,2013-01-16 13:47:00,
2013-01-16 07:52:00,18.3,14.0,29.59,North,0,0.0,0.0,83,0.00,,---,0.00,VWS V14.00,2013-01-16 13:52:00,
2013-01-16 07:57:00,18.8,14.5,29.58,North,0,0.0,0.0,83,0.00,,---,0.00,VWS V14.00,2013-01-16 13:57:00,
2013-01-16 08:02:00,19.2,14.9,29.58,North,0,0.0,3.5,83,0.00,,---,0.00,VWS V14.00,2013-01-16 14:02:00,
2013-01-16 08:07:00,19.9,15.6,29.59,North,0,4.4,5.8,83,0.00,,---,0.00,VWS V14.00,2013-01-16 14:07:00,
2013-01-16 08:12:00,20.3,16.0,29.59,North,0,0.0,0.0,83,0.00,,---,0.00,VWS V14.00,2013-01-16 14:12:00,
2013-01-16 08:17:00,20.8,16.5,29.59,North,0,2.9,3.5,83,0.00,,---,0.00,VWS V14.00,2013-01-16 14:17:00,
2013-01-16 08:22:00,21.3,17.0,29.58,North,0,0.0,5.5,83,0.00,,---,0.00,VWS V14.00,2013-01-16 14:22:00,
2013-01-16 08:27:00,21.9,17.5,29.58,North,0,4.9,4.9,83,0.00,,---,0.00,VWS V14.00,2013-01-16 14:27:00,
2013-01-16 08:32:00,22.4,18.0,29.58,North,0,3.1,3.1,83,0.00,,---,0.00,VWS V14.00,2013-01-16 14:32:00,
2013-01-16 08:37:00,23.0,18.6,29.58,North,0,6.7,6.7,83,0.00,,---,0.00,VWS V14.00,2013-01-16 14:37:00,
2013-01-16 08:42:00,23.7,19.3,29.58,North,0,8.0,8.0,83,0.00,,---,0.00,VWS V14.00,2013-01-16 14:42:00,
2013-01-16 08:47:00,24.0,19.6,29.58,North,0,4.0,6.9,83,0.00,,---,0.00,VWS V14.00,2013-01-16 14:47:00,
2013-01-16 08:52:00,24.6,19.9,29.59,North,0,0.0,2.0,82,0.00,,---,0.00,VWS V14.00,2013-01-16 14:52:00,
2013-01-16 08:57:00,25.1,20.1,29.59,North,0,0.0,4.2,81,0.00,,---,0.00,VWS V14.00,2013-01-16 14:57:00,
2013-01-16 09:02:00,25.7,20.7,29.59,North,0,0.0,6.7,81,0.00,,---,0.00,VWS V14.00,2013-01-16 15:02:00,
2013-01-16 09:07:00,26.2,20.9,29.59,North,0,5.3,5.3,80,0.00,,---,0.00,VWS V14.00,2013-01-16 15:07:00,
2013-01-16 09:12:00,26.7,21.1,29.59,North,0,0.0,6.0,79,0.00,,---,0.00,VWS V14.00,2013-01-16 15:12:00,
2013-01-16 09:17:00,27.3,21.7,29.58,North,0,2.2,4.4,79,0.00,,---,0.00,VWS V14.00,2013-01-16 15:17:00,
2013-01-16 09:22:00,28.0,22.0,29.58,North,0,0.0,0.0,78,0.00,,---,0.00,VWS V14.00,2013-01-16 15:22:00,
2013-01-16 09:27:00,28.4,22.1,29.58,North,0,7.6,7.6,77,0.00,,---,0.00,VWS V14.00,2013-01-16 15:27:00,
2013-01-16 09:32:00,28.7,21.8,29.58,North,0,1.5,7.6,75,0.00,,---,0.00,VWS V14.00,2013-01-16 15:32:00,
2013-01-16 09:37:00,28.9,21.7,29.57,North,0,2.4,7.3,74,0.00,,---,0.00,VWS V14.00,2013-01-16 15:37:00,
2013-01-16 09:42:00,29.3,22.1,29.58,North,0,2.0,2.0,74,0.00,,---,0.00,VWS V14.00,2013-01-16 15:42:00,
2013-01-16 09:47:00,30.0,22.4,29.57,North,0,0.0,5.3,73,0.00,,---,0.00,VWS V14.00,2013-01-16 15:47:00,
2013-01-16 09:52:00,30.0,22.1,29.57,North,0,7.1,7.1,72,0.00,,---,0.00,VWS V14.00,2013-01-16 15:52:00,
2013-01-16 09:57:00,30.5,21.9,29.56,North,0,4.0,6.0,70,0.00,,---,0.00,VWS V14.00,2013-01-16 15:57:00,
2013-01-16 10:02:00,30.7,21.8,29.56,North,0,3.3,7.1,69,0.00,,---,0.00,VWS V14.00,2013-01-16 16:02:00,
2013-01-16 10:07:00,31.2,22.2,29.56,North,0,6.2,6.2,69,0.00,,---,0.00,VWS V14.00,2013-01-16 16:07:00,
2013-01-16 14:09:00,38.8,26.5,100.00,SW,225,11.8,11.8,61,0.00,,---,0.00,VWS V14.00,2013-01-16 20:09:00,
2013-01-16 14:14:00,38.8,26.5,29.48,SW,225,9.3,9.3,61,0.00,,---,0.00,VWS V14.00,2013-01-16 20:14:00,
2013-01-16 14:19:00,38.8,26.5,29.47,WSW,248,11.1,11.1,61,0.02,,---,0.02,VWS V14.00,2013-01-16 20:19:00,
2013-01-16 14:24:00,38.8,26.5,29.47,SW,225,12.9,12.9,61,0.02,,---,0.02,VWS V14.00,2013-01-16 20:24:00,
2013-01-16 14:29:00,38.8,26.9,29.48,SW,225,7.6,8.0,62,0.02,,---,0.02,VWS V14.00,2013-01-16 20:29:00,
2013-01-16 14:34:00,38.8,26.5,29.48,SW,225,11.8,11.8,61,0.02,,---,0.02,VWS V14.00,2013-01-16 20:34:00,
2013-01-16 14:39:00,38.8,26.5,29.47,WSW,248,8.2,11.4,61,0.02,,---,0.02,VWS V14.00,2013-01-16 20:39:00,
2013-01-16 14:44:00,38.8,26.5,29.47,WSW,248,8.5,10.7,61,0.02,,---,0.02,VWS V14.00,2013-01-16 20:44:00,
2013-01-16 14:49:00,38.8,26.5,29.48,SW,225,6.7,6.7,61,0.02,,---,0.02,VWS V14.00,2013-01-16 20:49:00,
2013-01-16 14:54:00,38.8,26.5,29.48,SW,225,11.4,11.4,61,0.02,,---,0.02,VWS V14.00,2013-01-16 20:54:00,
2013-01-16 14:59:00,38.8,26.5,29.48,WSW,248,9.8,13.1,61,0.02,,---,0.02,VWS V14.00,2013-01-16 20:59:00,
2013-01-16 15:04:00,38.4,25.7,29.47,SW,225,10.9,10.9,60,0.02,,---,0.02,VWS V14.00,2013-01-16 21:04:00,
2013-01-16 15:09:00,38.4,25.7,29.47,WSW,248,11.8,12.3,60,0.02,,---,0.02,VWS V14.00,2013-01-16 21:09:00,
2013-01-16 15:14:00,38.3,25.6,29.47,WSW,248,11.6,11.6,60,0.02,,---,0.02,VWS V14.00,2013-01-16 21:14:00,
2013-01-16 15:19:00,38.1,25.9,29.47,WSW,248,4.6,10.5,61,0.00,,---,0.02,VWS V14.00,2013-01-16 21:19:00,
2013-01-16 15:24:00,38.1,25.9,29.47,SW,225,13.4,13.4,61,0.00,,---,0.02,VWS V14.00,2013-01-16 21:24:00,
2013-01-16 15:29:00,38.1,25.9,29.47,WSW,248,1.5,10.9,61,0.00,,---,0.02,VWS V14.00,2013-01-16 21:29:00,
2013-01-16 15:34:00,37.9,25.7,29.47,WSW,248,5.3,8.2,61,0.00,,---,0.02,VWS V14.00,2013-01-16 21:34:00,
2013-01-16 15:39:00,37.9,26.1,29.48,WSW,248,9.3,9.3,62,0.00,,---,0.02,VWS V14.00,2013-01-16 21:39:00,
2013-01-16 15:44:00,37.9,26.1,29.48,SW,225,9.1,12.5,62,0.00,,---,0.02,VWS V14.00,2013-01-16 21:44:00,
2013-01-16 15:49:00,37.9,26.1,29.47,WSW,248,11.1,11.1,62,0.00,,---,0.02,VWS V14.00,2013-01-16 21:49:00,
2013-01-16 15:54:00,37.9,26.1,29.48,SW,225,10.9,10.9,62,0.00,,---,0.02,VWS V14.00,2013-01-16 21:54:00,
2013-01-16 15:59:00,37.9,26.1,29.48,WSW,248,3.1,6.4,62,0.00,,---,0.02,VWS V14.00,2013-01-16 21:59:00,
2013-01-16 16:04:00,37.9,26.1,29.48,WSW,248,6.0,6.0,62,0.00,,---,0.02,VWS V14.00,2013-01-16 22:04:00,
2013-01-16 16:09:00,37.7,25.9,29.48,SW,225,1.7,11.4,62,0.00,,---,0.02,VWS V14.00,2013-01-16 22:09:00,
2013-01-16 16:14:00,37.5,25.7,29.49,WSW,248,4.6,4.6,62,0.00,,---,0.02,VWS V14.00,2013-01-16 22:14:00,
2013-01-16 16:19:00,37.5,25.7,29.49,WSW,248,0.0,2.9,62,0.00,,---,0.02,VWS V14.00,2013-01-16 22:19:00,
2013-01-16 16:24:00,37.2,25.4,29.50,West,270,0.0,0.0,62,0.00,,---,0.02,VWS V14.00,2013-01-16 22:24:00,
2013-01-16 16:29:00,37.2,25.4,29.50,SW,225,7.3,7.3,62,0.00,,---,0.02,VWS V14.00,2013-01-16 22:29:00,
2013-01-16 16:34:00,37.0,25.2,29.49,WSW,248,3.5,9.8,62,0.00,,---,0.02,VWS V14.00,2013-01-16 22:34:00,
2013-01-16 16:39:00,36.6,24.8,29.50,WSW,248,6.7,6.7,62,0.00,,---,0.02,VWS V14.00,2013-01-16 22:39:00,
2013-01-16 16:44:00,36.5,25.1,29.50,SW,225,4.0,4.2,63,0.00,,---,0.02,VWS V14.00,2013-01-16 22:44:00,
2013-01-16 16:49:00,36.3,24.9,29.50,SW,225,4.6,4.6,63,0.00,,---,0.02,VWS V14.00,2013-01-16 22:49:00,
2013-01-16 16:54:00,36.1,25.1,29.50,SW,225,4.2,4.2,64,0.00,,---,0.02,VWS V14.00,2013-01-16 22:54:00,
2013-01-16 16:59:00,36.1,25.1,29.50,SW,225,6.2,6.2,64,0.00,,---,0.02,VWS V14.00,2013-01-16 22:59:00,
2013-01-16 17:04:00,35.9,24.9,29.50,SW,225,7.1,7.1,64,0.00,,---,0.02,VWS V14.00,2013-01-16 23:04:00,
2013-01-16 17:09:00,35.9,25.3,29.51,SW,225,8.0,8.0,65,0.00,,---,0.02,VWS V14.00,2013-01-16 23:09:00,
2013-01-16 17:14:00,35.9,25.3,29.51,SW,225,8.0,8.0,65,0.00,,---,0.02,VWS V14.00,2013-01-16 23:14:00,
2013-01-16 17:19:00,36.1,25.5,29.51,SW,225,6.9,6.9,65,0.00,,---,0.02,VWS V14.00,2013-01-16 23:19:00,
2013-01-16 17:24:00,36.1,25.5,29.51,SW,225,5.3,5.3,65,0.00,,---,0.02,VWS V14.00,2013-01-16 23:24:00,
2013-01-16 17:29:00,36.1,25.9,29.52,SW,225,2.9,3.5,66,0.00,,---,0.02,VWS V14.00,2013-01-16 23:29:00,
2013-01-16 17:34:00,36.3,26.0,29.52,SW,225,4.6,4.6,66,0.00,,---,0.02,VWS V14.00,2013-01-16 23:34:00,
2013-01-16 17:39:00,36.3,26.0,29.52,SW,225,4.4,4.4,66,0.00,,---,0.02,VWS V14.00,2013-01-16 23:39:00,
2013-01-16 17:44:00,36.3,26.0,29.53,WSW,248,1.7,1.7,66,0.00,,---,0.02,VWS V14.00,2013-01-16 23:44:00,
2013-01-16 17:49:00,36.3,26.0,29.53,SW,225,3.1,4.2,66,0.00,,---,0.02,VWS V14.00,2013-01-16 23:49:00,
2013-01-16 17:54:00,36.3,26.0,29.53,SW,225,6.0,7.6,66,0.00,,---,0.02,VWS V14.00,2013-01-16 23:54:00,
2013-01-16 17:59:00,36.3,26.0,29.53,SW,225,8.5,8.5,66,0.00,,---,0.02,VWS V14.00,2013-01-16 23:59:00,
2013-01-16 18:04:00,36.3,26.0,29.53,SW,225,5.3,6.0,66,0.00,,---,0.02,VWS V14.00,2013-01-17 00:04:00,
2013-01-16 18:09:00,36.3,26.4,29.53,SW,225,6.2,7.3,67,0.00,,---,0.02,VWS V14.00,2013-01-17 00:09:00,
2013-01-16 18:14:00,36.3,26.0,29.55,WSW,248,0.0,4.6,66,0.00,,---,0.02,VWS V14.00,2013-01-17 00:14:00,
2013-01-16 18:19:00,36.3,26.0,29.55,SW,225,0.0,0.0,66,0.00,,---,0.02,VWS V14.00,2013-01-17 00:19:00,
2013-01-16 18:24:00,36.3,26.4,29.55,SW,225,0.0,0.0,67,0.00,,---,0.02,VWS V14.00,2013-01-17 00:24:00,
2013-01-16 18:29:00,36.3,26.4,29.54,SW,225,1.3,1.3,67,0.00,,---,0.02,VWS V14.00,2013-01-17 00:29:00,
2013-01-16 18:34:00,36.3,26.4,29.54,SW,225,3.8,4.2,67,0.00,,---,0.02,VWS V14.00,2013-01-17 00:34:00,
2013-01-16 18:39:00,36.3,26.4,29.54,SW,225,3.5,3.5,67,0.00,,---,0.02,VWS V14.00,2013-01-17 00:39:00,
2013-01-16 18:44:00,36.3,26.4,29.55,SW,225,0.0,0.0,67,0.00,,---,0.02,VWS V14.00,2013-01-17 00:44:00,
2013-01-16 18:49:00,36.1,26.2,29.55,SSW,202,2.0,2.0,67,0.00,,---,0.02,VWS V14.00,2013-01-17 00:49:00,
2013-01-16 18:54:00,36.3,26.4,29.55,SW,225,0.0,0.0,67,0.00,,---,0.02,VWS V14.00,2013-01-17 00:54:00,
2013-01-16 18:59:00,36.1,26.2,29.55,SW,225,0.0,0.0,67,0.00,,---,0.02,VWS V14.00,2013-01-17 00:59:00,
2013-01-16 19:04:00,36.1,26.2,29.56,SW,225,0.6,0.6,67,0.00,,---,0.02,VWS V14.00,2013-01-17 01:04:00,
2013-01-16 19:09:00,35.9,26.0,29.55,SW,225,0.0,0.0,67,0.00,,---,0.02,VWS V14.00,2013-01-17 01:09:00,
2013-01-16 19:14:00,35.9,26.0,29.56,SW,225,0.0,0.0,67,0.00,,---,0.02,VWS V14.00,2013-01-17 01:14:00,
2013-01-16 19:19:00,35.7,25.8,29.57,SW,225,0.0,0.0,67,0.00,,---,0.02,VWS V14.00,2013-01-17 01:19:00,
2013-01-16 19:24:00,35.7,25.8,29.56,SW,225,1.5,1.5,67,0.00,,---,0.02,VWS V14.00,2013-01-17 01:24:00,
2013-01-16 19:29:00,35.4,25.5,29.57,SW,225,3.1,3.8,67,0.00,,---,0.02,VWS V14.00,2013-01-17 01:29:00,
2013-01-16 19:34:00,35.2,25.4,29.57,SW,225,0.0,0.0,67,0.00,,---,0.02,VWS V14.00,2013-01-17 01:34:00,
2013-01-16 19:39:00,34.8,25.0,29.57,WSW,248,0.0,0.0,67,0.00,,---,0.02,VWS V14.00,2013-01-17 01:39:00,
2013-01-16 19:44:00,34.5,24.7,29.58,SSW,202,0.0,0.0,67,0.00,,---,0.02,VWS V14.00,2013-01-17 01:44:00,
2013-01-16 19:49:00,34.3,24.9,29.58,SSW,202,0.0,0.0,68,0.00,,---,0.02,VWS V14.00,2013-01-17 01:49:00,
2013-01-16 19:54:00,33.9,24.5,29.58,West,270,0.0,0.0,68,0.00,,---,0.02,VWS V14.00,2013-01-17 01:54:00,
2013-01-16 19:59:00,33.6,24.2,29.57,West,270,0.0,0.0,68,0.00,,---,0.02,VWS V14.00,2013-01-17 01:59:00,
2013-01-16 20:04:00,33.4,24.0,29.57,West,270,0.0,0.0,68,0.00,,---,0.02,VWS V14.00,2013-01-17 02:04:00,
2013-01-16 20:09:00,33.0,23.6,29.58,WSW,248,0.0,0.0,68,0.00,,---,0.02,VWS V14.00,2013-01-17 02:09:00,
2013-01-16 20:14:00,32.7,23.3,29.58,WSW,248,0.0,0.0,68,0.00,,---,0.02,VWS V14.00,2013-01-17 02:14:00,
2013-01-16 20:19:00,32.5,23.1,29.57,SW,225,3.1,3.1,68,0.00,,---,0.02,VWS V14.00,2013-01-17 02:19:00,
2013-01-16 20:24:00,32.3,23.3,29.57,SW,225,0.0,0.0,69,0.00,,---,0.02,VWS V14.00,2013-01-17 02:24:00,
2013-01-16 20:29:00,32.1,23.1,29.57,SW,225,0.0,0.0,69,0.00,,---,0.02,VWS V14.00,2013-01-17 02:29:00,
2013-01-16 20:34:00,32.3,23.6,29.58,SW,225,2.4,2.4,70,0.00,,---,0.02,VWS V14.00,2013-01-17 02:34:00,
2013-01-16 20:39:00,32.5,23.8,29.58,SW,225,2.9,2.9,70,0.00,,---,0.02,VWS V14.00,2013-01-17 02:39:00,
2013-01-16 20:44:00,32.7,24.4,29.58,SW,225,0.0,0.0,71,0.00,,---,0.02,VWS V14.00,2013-01-17 02:44:00,
2013-01-16 20:49:00,32.9,24.5,29.58,SW,225,1.1,1.1,71,0.00,,---,0.02,VWS V14.00,2013-01-17 02:49:00,
2013-01-16 20:54:00,33.0,24.6,29.57,SW,225,0.0,0.0,71,0.00,,---,0.02,VWS V14.00,2013-01-17 02:54:00,
2013-01-16 20:59:00,33.2,24.8,29.58,SW,225,0.0,0.0,71,0.00,,---,0.02,VWS V14.00,2013-01-17 02:59:00,
2013-01-16 21:04:00,33.4,25.0,29.58,WSW,248,0.0,0.0,71,0.00,,---,0.02,VWS V14.00,2013-01-17 03:04:00,
2013-01-16 21:10:00,33.6,25.2,29.57,SW,225,0.0,0.0,71,0.00,,---,0.02,VWS V14.00,2013-01-17 03:10:00,
2013-01-16 21:15:00,33.6,25.2,29.57,SW,225,0.0,0.0,71,0.00,,---,0.02,VWS V14.00,2013-01-17 03:15:00,
2013-01-16 21:20:00,33.8,25.4,29.58,SW,225,0.0,0.0,71,0.00,,---,0.02,VWS V14.00,2013-01-17 03:20:00,
2013-01-16 21:25:00,33.8,25.7,29.58,SW,225,0.0,0.0,72,0.00,,---,0.02,VWS V14.00,2013-01-17 03:25:00,
2013-01-16 21:30:00,33.8,25.7,29.58,SW,225,0.0,0.0,72,0.00,,---,0.02,VWS V14.00,2013-01-17 03:30:00,
2013-01-16 21:35:00,33.9,25.8,29.58,SW,225,0.0,0.0,72,0.00,,---,0.02,VWS V14.00,2013-01-17 03:35:00,
2013-01-16 21:40:00,33.9,25.8,29.58,SW,225,0.0,0.0,72,0.00,,---,0.02,VWS V14.00,2013-01-17 03:40:00,
2013-01-16 21:45:00,34.1,26.0,29.58,WSW,248,0.0,0.0,72,0.00,,---,0.02,VWS V14.00,2013-01-17 03:45:00,
2013-01-16 21:50:00,34.1,26.0,29.58,West,270,0.0,0.0,72,0.00,,---,0.02,VWS V14.00,2013-01-17 03:50:00,
2013-01-16 21:55:00,34.1,26.0,29.58,SW,225,0.0,0.0,72,0.00,,---,0.02,VWS V14.00,2013-01-17 03:55:00,
2013-01-16 22:00:00,34.3,26.2,29.58,SW,225,0.0,1.7,72,0.00,,---,0.02,VWS V14.00,2013-01-17 04:00:00,
2013-01-16 22:05:00,34.3,26.2,29.58,SW,225,4.0,4.0,72,0.00,,---,0.02,VWS V14.00,2013-01-17 04:05:00,
2013-01-16 22:10:00,34.3,26.2,29.58,SW,225,0.0,0.0,72,0.00,,---,0.02,VWS V14.00,2013-01-17 04:10:00,
2013-01-16 22:15:00,34.3,26.2,29.58,SW,225,0.0,1.5,72,0.00,,---,0.02,VWS V14.00,2013-01-17 04:15:00,
2013-01-16 22:20:00,34.3,26.2,29.58,SW,225,0.0,0.0,72,0.00,,---,0.02,VWS V14.00,2013-01-17 04:20:00,
2013-01-16 22:25:00,34.3,26.2,29.58,SW,225,1.1,1.1,72,0.00,,---,0.02,VWS V14.00,2013-01-17 04:25:00,
2013-01-16 22:30:00,34.3,26.2,29.58,SW,225,0.0,0.0,72,0.00,,---,0.02,VWS V14.00,2013-01-17 04:30:00,
2013-01-16 22:35:00,34.3,26.2,29.57,SW,225,3.5,3.5,72,0.00,,---,0.02,VWS V14.00,2013-01-17 04:35:00,
2013-01-16 22:40:00,34.3,26.2,29.58,SW,225,0.0,2.6,72,0.00,,---,0.02,VWS V14.00,2013-01-17 04:40:00,
2013-01-16 22:45:00,34.3,26.2,29.58,SW,225,0.0,0.0,72,0.00,,---,0.02,VWS V14.00,2013-01-17 04:45:00,
2013-01-16 22:50:00,34.3,26.2,29.58,SW,225,0.0,0.0,72,0.00,,---,0.02,VWS V14.00,2013-01-17 04:50:00,
2013-01-16 22:55:00,34.3,26.2,29.59,SW,225,1.3,1.3,72,0.00,,---,0.02,VWS V14.00,2013-01-17 04:55:00,
2013-01-16 23:02:00,34.3,26.2,29.58,SW,225,0.0,0.0,72,0.00,,---,0.02,VWS V14.00,2013-01-17 05:02:00,
2013-01-16 23:04:00,34.3,26.2,29.58,SW,225,0.0,0.0,72,0.00,,---,0.02,VWS V14.00,2013-01-17 05:04:00,
2013-01-16 23:07:00,34.3,26.2,29.59,SW,225,0.0,0.0,72,0.00,,---,0.02,VWS V14.00,2013-01-17 05:07:00,
2013-01-16 23:12:00,34.3,26.2,29.59,SW,225,0.0,0.0,72,0.00,,---,0.02,VWS V14.00,2013-01-17 05:12:00,
2013-01-16 23:17:00,34.5,26.4,29.59,SW,225,0.0,1.7,72,0.00,,---,0.02,VWS V14.00,2013-01-17 05:17:00,
2013-01-16 23:21:00,34.5,26.4,29.59,SW,225,0.0,0.0,72,0.00,,---,0.02,VWS V14.00,2013-01-17 05:21:00,
2013-01-16 23:26:00,34.3,26.2,29.59,SW,225,0.0,0.0,72,0.00,,---,0.02,VWS V14.00,2013-01-17 05:26:00,
2013-01-16 23:31:00,34.3,26.2,29.59,SW,225,0.0,0.0,72,0.00,,---,0.02,VWS V14.00,2013-01-17 05:31:00,
2013-01-16 23:36:00,34.3,26.2,29.59,SW,225,0.0,0.0,72,0.00,,---,0.02,VWS V14.00,2013-01-17 05:36:00,
2013-01-16 23:41:00,34.3,26.2,29.58,SW,225,0.0,0.0,72,0.00,,---,0.02,VWS V14.00,2013-01-17 05:41:00,
2013-01-16 23:46:00,34.5,26.4,29.59,WSW,248,0.0,0.0,72,0.00,,---,0.02,VWS V14.00,2013-01-17 05:46:00,
2013-01-16 23:51:00,34.3,26.2,29.59,SW,225,0.0,0.0,72,0.00,,---,0.02,VWS V14.00,2013-01-17 05:51:00,
2013-01-16 23:56:00,34.5,26.4,29.59,SW,225,0.0,0.0,72,0.00,,---,0.02,VWS V14.00,2013-01-17 05:56:00,